Regional Weather Roundup
Issued by NWS

Home | Current Version | Previous Version | Text Only | Print | Product List | Glossary Off
Versions: 1 2 3 4 5 6 7 8 9 10 11 12 13 14 15 16 17 18 19 20 21 22 23 24 25 26 27 28

000
ASUS45 KCYS 280810
RWRWY

WYOMING REGIONAL WEATHER ROUNDUP
NATIONAL WEATHER SERVICE CHEYENNE WY
200 AM MDT SUN AUG 28 2016

NOTE:  "FAIR" INDICATES FEW OR NO CLOUDS BELOW 12,000 FEET
WITH NO SIGNIFICANT WEATHER AND/OR OBSTRUCTIONS TO VISIBILITY.

WYZ001-280900-
YELLOWSTONE NATIONAL PARK

CITY           SKY/WX    TMP DP  RH WIND       PRES   REMARKS
LK YELLOWSTONE   N/A     36  28  73 NW3       30.25S
W YELLOWSTONE  NOT AVBL

$$
WYZ002>013-054>058-071-098>099-280900-
NORTHERN WYOMING

CITY           SKY/WX    TMP DP  RH WIND       PRES   REMARKS
JACKSON        FAIR      39  27  60 N7        30.18R WCI  34
CODY           FAIR      68  28  22 W5        30.01S
GREYBULL       FAIR      61  33  35 SE6       29.94S
WORLAND        FAIR      56  33  42 SW6       29.96R
SHERIDAN       FAIR      49  40  71 CALM      29.92S
BUFFALO        FAIR      62  27  26 W3        29.99S
GILLETTE       FAIR      58  38  47 S8        29.95S
HULETT         FAIR      61  41  48 CALM      29.97S
NEWCASTLE      FAIR      66  41  39 E10G20    29.99S

$$
WYZ014>020-022>026-101>103-280900-
CENTRAL WYOMING

CITY           SKY/WX    TMP DP  RH WIND       PRES   REMARKS
BIG PINEY      FAIR      43  29  57 NE7       30.23F
PINEDALE       FAIR      37  30  75 N6        30.25S WCI  33
DUBOIS         FAIR      50  21  32 NW12      30.19S
LANDER         FAIR      59  28  30 SE5       30.07S
RIVERTON       FAIR      58  28  32 NW13      30.07S
CASPER         FAIR      54  36  50 SW9       30.05S
DOUGLAS        FAIR      49  33  54 E7        30.05S

$$
WYZ021-027>030-104>119-280900-
SOUTHERN WYOMING

CITY           SKY/WX    TMP DP  RH WIND       PRES   REMARKS
EVANSTON       FAIR      54  24  31 S8        30.25S
FORT BRIDGER   FAIR      60  24  24 SW10      30.27S
ROCK SPRINGS   FAIR      55  21  26 SW10      30.22S
DIXON          FAIR      47  32  56 SE5       30.28R
RAWLINS        FAIR      53  28  38 SW10      30.22R
SARATOGA       FAIR      52  32  46 E10G16    30.25S
LARAMIE        FAIR      43  31  62 S12       30.24S
CHEYENNE       FAIR      58  39  49 W9        30.17F
TORRINGTON     FAIR      55  47  74 E5        30.03S
PINE BLUFFS    FAIR      50  43  76 CALM      30.13F

$$




USA.gov is the U.S. government's official web portal to all federal, state and local government web resources and services.